{"data":{"norad_id":47306,"epoch":"2026-05-24T14:12:05.470272Z","epoch_age_seconds":100407,"freshness":"FRESH","line1":"1 47306U 21001A   26144.59172998  .00000150  00000+0  00000+0 0  9995","line2":"2 47306   0.0273  72.2208 0000089 271.0108 142.9093  1.00272065 19732","mean_motion":1.00272065,"eccentricity":8.9e-6,"inclination_deg":0.0273,"raan_deg":72.2208,"arg_perigee_deg":271.0108,"mean_anomaly_deg":142.9093,"bstar":0,"rev_number":1973,"period_min":1436.0928938683,"perigee_km":35786.141201793,"apogee_km":35786.891732625,"semimajor_km":42164.653467209,"source":"CELESTRAK","updated_at":"2026-05-25T13:38:14.098408Z"}}